GEFSNGP_con_prob3kmehi_282.txt.gz
EHI
0 0 0 0 0 0 0 0 0 1 0 0 1 1 2 5 8 10 12 17 21 23 23 26 30 31 32 33 34 38 41 38 30 24 20 17 14 11 9 7 6 6 6 6
0 0 0 0 0 0 0 0 1 1 0 1 2 2 4 8 12 14 15 18 23 25 24 24 27 30 31 32 32 35 38 35 29 23 20 18 15 12 9 8 7 7 7 6
0 0 0 0 0 0 1 1 1 1 0 1 2 4 6 11 15 17 17 20 25 29 27 25 25 29 31 32 31 33 33 30 24 20 19 19 16 13 10 9 8 7 7 7
0 0 0 0 0 1 2 2 2 2 2 3 5 8 11 13 15 16 18 22 27 30 32 30 28 30 31 31 32 34 32 25 18 16 17 17 15 13 12 11 9 8 8 8
0 0 0 0 0 1 2 3 3 4 5 7 10 13 14 15 16 18 20 22 25 30 34 35 33 34 34 32 33 35 33 25 17 14 14 13 13 13 13 13 12 11 10 9
0 0 0 0 1 2 2 2 5 7 9 11 13 14 14 16 19 20 21 21 24 29 35 37 36 36 36 34 32 32 29 25 20 17 15 14 13 13 15 16 16 14 12 11
0 0 0 1 3 3 2 3 6 9 10 12 15 16 17 19 21 22 23 24 25 29 34 36 35 35 34 32 28 24 21 20 21 20 19 17 15 15 17 19 19 17 14 12
0 0 0 1 3 4 4 5 8 9 11 13 16 20 23 22 23 24 25 27 29 32 33 32 30 30 29 29 26 20 15 15 16 17 18 18 17 16 16 17 18 17 15 13
1 1 1 1 3 5 7 8 10 10 10 13 16 19 22 22 21 23 27 30 31 33 32 28 25 25 25 26 25 22 17 14 13 12 14 16 18 17 14 13 13 14 13 12
2 2 2 2 4 6 8 9 10 9 10 13 14 15 16 18 18 21 26 29 29 29 28 25 23 23 22 23 23 22 19 17 15 13 13 15 17 16 14 12 11 10 10 11
1 1 2 2 3 6 7 8 8 7 8 10 12 11 12 14 16 18 22 24 24 23 24 24 24 22 21 21 22 21 19 18 17 15 15 15 16 14 13 12 10 8 8 8
0 0 1 1 2 4 5 6 6 6 6 7 8 9 10 12 14 15 17 19 18 19 22 25 25 23 21 22 22 20 18 16 13 12 12 13 14 13 10 9 6 5 5 5
0 1 2 3 3 4 5 6 6 6 7 7 7 7 9 10 12 14 15 15 14 16 19 24 25 24 22 22 21 19 16 13 11 9 9 10 12 13 11 7 4 3 2 2
1 2 3 3 4 4 5 4 5 7 7 7 6 7 7 8 11 12 12 11 12 13 16 20 22 22 21 20 19 16 13 11 11 10 9 9 10 12 11 9 6 3 1 0
3 3 3 4 4 4 4 3 4 6 7 7 6 6 6 6 7 8 8 8 10 12 14 16 18 19 21 20 17 13 10 9 9 10 9 8 9 10 9 8 7 5 2 1
3 3 3 3 4 3 3 3 4 6 6 6 5 4 4 4 5 6 7 7 8 11 13 14 15 17 20 21 18 12 8 7 7 8 8 8 8 9 8 7 6 5 4 2
3 3 3 4 4 4 3 3 4 5 5 4 4 3 3 3 4 5 6 6 8 12 14 14 15 17 18 18 17 14 10 8 7 7 7 7 7 8 8 7 5 5 4 2
3 3 4 4 5 4 3 3 3 3 3 3 3 3 3 2 2 3 5 6 9 11 13 13 14 15 15 14 15 15 13 10 9 9 7 5 5 5 5 6 6 5 3 2
4 4 4 5 5 4 3 2 2 2 2 2 2 2 1 1 1 2 4 6 7 8 9 10 10 11 11 10 11 12 11 10 10 10 8 5 4 3 3 4 5 4 2 1
5 5 5 5 4 4 3 3 3 2 1 1 2 2 2 2 3 4 5 5 5 5 6 7 7 8 7 7 7 7 8 8 8 9 8 7 6 3 1 2 3 2 1 1
6 6 5 4 4 3 3 4 5 4 3 3 3 4 5 6 6 7 6 5 4 5 6 6 6 6 5 4 3 3 5 5 6 7 7 7 7 4 2 2 2 1 0 0
6 5 4 3 3 3 3 4 6 6 6 5 5 6 7 8 8 6 5 5 5 6 6 6 5 4 2 1 1 1 2 4 5 7 7 7 6 3 2 3 4 2 1 0
5 4 3 3 3 3 4 4 5 6 6 6 6 6 7 7 7 5 4 3 4 4 4 3 2 1 0 0 0 0 2 3 5 7 7 5 3 2 2 4 4 3 1 0
3 3 3 3 2 3 4 4 3 3 4 4 5 5 5 4 4 3 2 1 1 1 1 1 0 0 0 0 0 0 1 2 4 6 6 3 1 1 2 3 2 1 0 0
1 1 2 1 1 1 1 1 1 1 1 1 2 2 2 1 1 1 0 0 0 0 0 0 0 0 0 0 0 0 0 1 2 5 5 2 0 0 1 1 1 0 0 0
0 0 0 0 0 0 0 0 0 0 0 0 0 0 0 0 0 0 0 0 0 0 0 0 0 0 0 0 0 0 0 1 2 4 3 2 0 0 0 0 0 0 0 1
0 0 0 0 0 0 0 0 0 0 0 0 0 0 0 0 0 0 0 0 0 0 0 0 0 0 0 0 0 0 0 1 2 3 3 2 1 0 0 0 0 0 1 1

GEFSNGP_con_prob3kmehi_288.txt.gz
EHI
0 0 0 0 0 0 0 0 0 0 0 0 0 0 0 1 2 2 2 2 3 4 5 5 6 9 14 18 19 18 16 15 14 13 10 6 6 7 7 6 5 5 4 3
0 0 0 0 0 0 0 0 0 0 0 0 0 0 0 0 1 1 1 1 3 4 5 6 8 11 15 18 19 18 17 15 14 12 9 6 5 7 8 7 7 6 4 3
0 0 0 0 0 0 0 0 0 0 0 0 0 0 0 0 1 1 1 2 4 6 6 7 9 12 15 16 16 15 15 15 13 12 9 5 4 6 9 9 8 7 5 4
0 0 0 0 0 0 0 0 0 0 0 0 1 1 0 1 2 2 3 4 6 8 8 8 10 12 13 13 12 12 15 16 15 12 9 6 5 6 8 9 9 8 6 5
0 0 0 0 0 0 0 0 0 0 1 1 1 1 0 1 3 4 5 6 7 8 9 9 10 12 14 13 12 13 17 18 17 13 9 6 5 5 6 7 8 8 6 5
0 0 0 0 0 0 0 0 1 1 2 2 1 1 0 1 3 5 6 7 7 8 9 10 12 14 15 14 13 14 17 19 17 13 10 7 4 3 5 7 8 7 5 4
0 0 0 0 0 0 0 1 2 3 3 2 1 0 1 2 4 6 7 8 7 8 9 11 13 16 16 14 12 14 16 17 16 13 10 6 4 4 4 6 7 6 4 4
0 0 0 0 0 1 1 2 3 3 4 3 2 3 4 4 5 6 7 8 9 9 10 11 12 15 15 13 13 14 15 15 14 12 8 6 6 5 5 6 6 5 3 3
1 0 0 0 1 2 3 3 3 4 6 6 6 7 7 5 5 6 7 10 13 14 12 10 11 13 12 13 15 16 14 13 11 10 7 7 7 6 5 5 5 4 4 4
1 0 0 0 1 2 3 4 4 6 7 9 9 8 6 4 5 7 8 10 13 16 15 12 12 11 9 11 14 14 12 10 9 8 7 6 6 5 4 5 4 4 5 5
1 0 0 0 1 1 2 4 6 7 9 10 9 6 4 4 6 8 8 7 9 13 14 12 12 11 9 8 10 10 10 8 7 7 6 5 5 4 4 4 3 3 3 4
0 0 0 0 0 0 1 3 5 6 8 9 7 5 5 6 8 8 6 5 6 9 10 10 11 11 9 7 6 7 7 6 5 5 5 5 6 5 4 3 2 1 1 1
0 0 0 0 0 0 1 2 3 5 6 7 7 6 6 7 8 6 4 4 5 8 8 8 8 8 7 6 5 4 4 4 3 3 4 4 6 6 4 2 1 0 0 0
0 0 0 0 0 1 2 3 3 3 4 5 5 6 6 7 6 5 4 4 5 7 8 7 7 6 5 5 4 3 2 2 2 2 3 3 4 5 4 2 1 0 0 0
0 0 0 0 1 2 3 3 3 3 3 4 4 5 5 6 5 5 4 4 6 7 8 8 8 7 5 4 3 2 1 1 1 2 2 2 3 4 4 3 2 2 1 1
0 0 0 1 2 3 3 3 3 3 3 3 2 2 3 3 4 4 5 5 7 8 9 8 8 8 6 3 2 2 2 1 1 2 2 2 3 4 5 5 5 5 3 2
1 1 1 1 3 4 4 3 3 3 3 2 1 0 1 1 3 3 3 4 6 8 8 8 8 8 6 4 3 3 2 1 1 2 3 3 4 4 4 5 6 5 4 2
1 1 1 2 3 4 4 4 3 3 2 1 0 0 0 1 2 3 2 3 5 7 8 7 6 6 5 4 4 4 3 2 3 4 4 5 4 3 3 4 4 4 4 3
2 2 3 3 3 3 3 3 2 1 1 0 0 0 0 1 2 3 3 3 3 5 6 5 3 4 5 4 3 2 2 3 4 5 6 6 6 4 2 2 3 3 4 4
3 3 3 3 2 2 2 1 1 0 0 0 0 0 0 0 1 2 2 2 1 2 3 2 1 2 3 2 1 0 1 2 4 5 5 6 6 4 3 3 3 4 3 3
2 2 2 1 1 1 1 0 0 0 0 0 0 0 0 0 0 1 1 1 0 1 1 1 0 1 1 0 0 0 0 0 2 3 3 4 4 4 4 4 5 5 4 3
1 1 1 0 0 0 0 0 0 0 0 0 0 0 0 0 0 0 0 0 0 0 0 0 0 0 0 0 0 0 0 1 1 2 2 2 3 4 5 5 6 5 3 2
0 0 0 0 0 0 0 0 0 0 0 0 0 0 0 0 1 1 1 1 0 0 0 0 0 0 0 0 0 0 0 1 1 1 1 2 3 3 3 3 4 3 2 1
0 0 0 0 0 0 0 0 0 0 0 0 0 0 0 1 2 1 1 0 0 0 0 0 0 0 0 0 0 0 0 1 1 0 0 1 1 1 1 1 1 1 1 0
0 0 0 0 0 0 0 0 0 0 0 0 0 0 0 1 2 1 0 0 0 0 0 0 0 0 0 0 0 0 0 0 0 0 0 0 0 0 0 0 0 1 0 0
0 0 0 0 0 0 0 0 0 0 0 0 0 0 0 1 1 0 0 0 0 0 0 0 0 0 0 0 0 0 0 0 0 0 0 0 0 0 0 0 0 0 0 0
0 0 0 0 0 0 0 0 0 0 0 0 0 0 0 0 0 0 0 0 0 0 0 0 0 0 0 0 0 0 0 0 0 0 0 0 0 0 0 0 0 0 0 0

GEFSNGP_con_prob3kmehi_294.txt.gz
EHI
0 0 0 0 0 0 0 0 0 0 1 2 4 6 5 4 2 2 6 12 17 21 25 29 31 32 30 29 32 37 42 44 43 43 39 34 32 32 31 26 22 22 20 17
0 0 0 0 0 0 0 0 0 1 1 2 5 6 4 3 2 2 4 10 16 21 25 27 28 30 31 30 33 37 38 40 41 41 38 35 33 32 30 25 23 23 21 19
0 0 0 0 0 0 0 0 1 1 1 3 5 6 4 3 3 2 4 9 14 20 24 25 25 26 29 33 35 36 35 35 36 36 34 32 31 30 27 23 20 20 20 18
0 0 0 0 0 0 0 0 0 0 1 3 5 5 5 6 6 6 7 11 13 17 22 24 23 24 28 33 37 37 35 33 32 32 31 29 27 25 24 21 19 19 18 15
0 0 0 0 0 0 0 0 1 1 2 3 4 5 7 10 11 10 12 15 14 14 19 23 24 27 30 34 36 37 35 32 30 29 30 28 25 23 22 22 21 20 18 16
0 0 0 0 0 0 0 1 2 3 4 5 4 5 8 12 13 12 14 16 15 13 16 22 26 31 33 33 34 36 35 31 28 28 28 26 23 21 20 21 22 21 19 18
0 0 1 1 1 1 1 3 4 5 6 7 6 8 11 13 13 12 13 15 16 15 16 22 28 33 34 32 32 34 35 33 29 27 24 21 20 19 19 20 22 23 23 22
1 1 2 3 4 4 5 6 6 6 7 9 9 11 12 12 11 12 12 15 19 21 21 25 31 35 35 33 32 33 36 36 31 25 19 17 17 19 20 22 24 24 23 22
4 3 3 5 6 7 8 8 7 7 8 10 10 11 11 10 11 11 11 15 21 24 25 29 33 35 35 34 34 36 38 37 32 24 20 17 17 18 20 21 21 19 17 17
7 7 6 6 7 8 7 6 6 7 8 9 10 9 9 9 10 10 9 13 19 21 23 26 29 31 31 32 36 40 39 36 31 26 22 20 19 18 17 17 17 15 14 13
9 9 9 8 7 8 7 6 6 7 8 8 9 8 7 7 8 8 8 11 15 18 20 21 22 24 27 29 34 37 38 34 29 24 21 20 18 15 13 12 13 12 10 10
7 8 9 9 9 10 9 7 6 6 7 7 7 7 6 7 7 8 9 11 13 15 16 17 17 19 22 25 28 30 32 29 23 19 19 18 16 12 9 7 6 4 4 4
7 6 6 6 8 8 8 6 5 5 6 6 6 6 8 8 8 8 10 11 12 13 13 13 13 15 18 20 22 23 24 21 17 15 16 16 14 11 7 4 2 1 0 0
7 6 5 5 6 5 4 4 3 4 6 7 6 7 8 8 8 8 10 12 12 12 11 10 11 13 16 18 18 18 18 16 13 12 12 13 13 13 9 6 4 3 1 0
7 7 6 6 5 3 3 3 3 3 6 7 8 8 8 8 9 10 11 12 13 12 10 10 12 13 14 15 15 15 15 14 12 11 11 11 13 13 11 8 6 3 2 1
6 6 6 6 5 4 4 3 3 4 6 8 9 9 8 9 10 11 12 12 12 11 10 10 11 11 11 11 12 12 13 10 8 9 9 10 10 10 9 8 7 4 2 2
4 4 5 5 5 5 4 3 2 4 6 8 9 9 9 10 11 12 12 11 10 10 9 9 9 8 8 8 9 10 8 5 4 6 7 7 8 8 7 7 7 6 4 3
3 3 4 4 4 5 4 2 1 2 5 7 8 9 10 10 11 12 11 10 9 9 8 7 7 7 7 8 7 7 5 3 3 3 5 5 6 6 5 5 6 5 4 4
3 3 3 3 3 4 4 3 2 2 4 6 7 9 10 10 10 10 9 9 8 7 6 6 6 6 7 7 5 5 5 3 2 2 3 3 3 3 3 3 5 4 3 2
3 3 3 3 3 3 4 4 4 4 4 6 7 8 8 8 8 7 6 6 5 4 4 5 5 6 5 4 4 4 4 3 1 1 1 1 1 1 1 1 3 3 1 1
3 3 3 3 3 3 3 3 4 4 4 5 6 6 5 5 4 4 3 3 2 1 1 2 3 3 3 2 2 4 4 2 1 1 1 1 2 2 1 0 1 1 0 0
3 3 3 3 3 3 3 3 3 4 4 4 4 4 3 3 2 2 2 2 1 1 1 1 2 1 1 1 2 4 4 2 2 2 2 2 2 2 1 0 0 0 0 0
3 3 3 3 3 3 3 3 3 3 3 2 2 2 2 2 1 1 1 2 1 1 1 1 1 0 0 1 3 4 4 2 1 1 1 1 1 1 1 0 0 0 0 0
2 3 3 3 3 3 3 3 3 2 1 1 1 1 1 1 0 0 0 1 1 0 1 1 0 0 0 2 3 4 3 2 1 1 1 1 1 1 1 0 0 0 0 0
2 2 3 3 3 4 4 3 2 1 0 0 0 0 0 0 0 0 0 0 0 0 0 0 0 0 0 1 2 2 2 2 2 2 2 2 1 1 1 0 0 0 0 0
2 2 3 3 4 4 4 2 1 0 0 0 0 0 0 0 0 0 0 0 0 0 0 0 0 0 0 0 1 1 1 1 2 2 2 1 1 0 0 0 0 0 0 0
2 3 3 3 4 4 2 1 0 0 0 0 0 0 0 0 0 0 0 0 0 0 0 0 0 0 0 0 0 1 1 1 1 1 1 0 0 0 0 0 0 0 0 0

GEFSNGP_con_prob3kmehi_300.txt.gz
EHI
0 0 0 0 0 0 0 0 0 2 4 7 9 9 11 16 19 21 21 21 26 34 38 39 42 42 41 42 44 48 51 52 53 53 53 53 51 45 41 38 37 36 30 25
0 0 0 0 0 0 0 0 0 2 4 6 9 11 14 18 21 22 22 22 26 33 39 42 43 43 42 42 45 49 52 51 51 52 51 50 48 44 40 39 39 37 30 25
0 0 0 0 0 0 0 1 1 1 2 4 8 12 15 18 20 21 20 20 22 28 35 39 41 42 42 42 45 49 52 51 50 50 48 46 46 44 41 41 41 36 29 25
0 0 0 0 0 0 1 2 2 2 2 3 7 10 12 13 15 16 16 15 17 21 26 29 33 38 40 41 41 45 48 48 47 47 46 45 44 43 43 44 41 35 28 26
0 0 0 0 0 0 1 3 3 3 3 4 7 9 11 10 11 13 13 11 12 15 19 23 28 35 39 38 38 40 42 43 44 46 46 46 44 44 45 44 39 34 30 27
0 0 0 1 1 0 2 5 6 5 4 5 8 11 12 11 10 12 12 9 8 12 19 22 26 34 40 38 37 38 38 40 43 45 45 45 45 45 44 41 36 33 32 32
0 0 1 2 2 2 6 10 10 7 6 8 10 12 13 13 12 13 12 10 9 13 20 23 25 32 37 37 39 41 40 40 41 41 40 40 42 43 40 37 34 34 35 35
1 2 4 6 6 7 12 13 10 7 8 10 12 12 13 13 13 12 12 13 14 18 21 22 22 28 33 35 38 41 43 42 40 38 35 35 37 37 35 33 33 35 36 35
4 6 8 10 10 12 13 11 8 6 8 10 12 13 14 13 12 10 11 14 16 19 22 21 22 26 30 32 34 37 41 42 39 36 34 33 33 32 31 31 31 33 33 31
7 9 10 11 11 11 10 8 5 4 6 8 11 14 15 13 12 12 12 13 14 18 21 22 24 26 29 31 32 34 36 38 36 34 32 30 29 29 28 27 28 28 28 27
7 7 8 10 10 9 7 5 4 4 6 8 11 13 14 13 14 14 13 12 13 15 18 21 24 26 30 33 35 34 34 34 32 29 26 25 25 23 21 20 19 19 19 19
6 6 7 9 10 9 6 5 5 6 8 9 10 12 13 13 14 14 13 12 13 13 14 16 19 24 29 33 35 34 32 31 27 24 23 22 21 19 16 12 8 7 7 8
6 7 7 7 9 9 8 6 6 6 8 9 9 10 12 13 14 13 10 9 10 11 11 13 16 20 25 28 31 30 28 25 22 21 21 20 18 19 17 12 6 2 1 1
7 7 6 6 7 7 7 6 6 6 7 8 7 8 10 13 14 12 7 6 8 8 9 11 15 18 19 21 23 24 21 18 16 17 18 18 18 19 19 17 13 8 4 2
6 5 5 5 5 6 5 5 5 5 6 6 5 6 8 10 11 9 6 5 6 7 8 11 15 16 16 16 17 17 14 11 9 10 13 15 16 16 16 17 18 15 10 6
4 3 4 4 4 5 4 4 4 4 4 4 5 6 8 9 8 7 5 5 7 9 10 13 16 16 16 15 14 12 10 6 4 5 8 9 11 13 14 15 17 17 13 8
2 3 4 4 5 5 4 4 3 3 3 4 6 6 7 8 7 7 7 7 9 11 12 14 15 16 16 14 11 8 6 5 4 5 7 9 10 12 14 15 15 15 12 7
2 3 4 5 5 6 5 4 3 3 4 5 6 6 6 6 7 9 11 12 13 13 13 13 13 13 13 11 8 6 5 5 6 9 11 11 11 12 11 11 12 12 9 6
1 1 2 3 5 6 6 5 4 4 5 5 5 6 5 4 6 10 14 15 15 14 13 11 10 11 11 9 6 5 4 4 6 9 11 9 9 10 8 6 7 8 7 6
0 0 0 1 3 5 6 6 6 6 6 5 4 4 4 4 5 9 12 14 14 14 12 10 8 8 10 8 5 4 4 3 4 7 10 8 7 7 6 5 4 5 6 6
1 0 0 0 1 3 4 5 6 6 6 4 3 3 3 4 6 9 11 12 12 12 9 7 6 6 6 5 4 3 3 3 4 6 9 9 8 6 6 5 4 4 6 6
2 1 1 1 1 3 3 4 5 6 5 4 4 4 5 7 8 10 10 10 9 8 6 4 4 3 3 3 3 3 3 3 4 6 8 8 8 6 5 4 4 5 5 5
2 2 2 2 3 3 3 3 4 4 4 4 5 6 7 8 8 8 8 7 5 4 3 3 2 1 2 3 3 3 3 3 5 6 7 6 6 6 4 3 3 3 3 3
1 2 3 3 3 3 3 3 3 3 3 4 5 7 7 6 6 6 5 3 2 1 1 1 0 1 2 2 2 2 2 3 3 4 4 4 5 5 4 3 2 1 1 1
0 1 1 3 3 3 3 3 3 3 3 4 5 5 4 4 4 4 4 2 1 0 0 0 0 0 1 1 1 1 1 2 2 2 3 3 4 3 2 2 1 1 1 1
0 0 1 2 2 3 3 3 3 3 2 3 3 3 2 2 2 3 3 2 1 0 0 0 0 0 0 0 0 1 2 1 0 1 2 2 1 1 1 0 0 0 0 0
0 0 0 1 1 2 3 4 4 2 1 1 1 1 1 1 1 1 1 1 0 0 0 0 0 0 0 0 1 2 3 1 0 0 1 1 0 0 0 0 0 0 0 0

GEFSNGP_con_prob3kmehi_306.txt.gz
EHI
0 0 0 0 0 0 0 0 1 2 4 6 12 19 22 19 14 11 8 5 5 7 8 10 15 18 17 15 14 17 21 24 26 25 22 19 19 18 17 16 14 12 12 12
0 0 0 0 0 0 0 0 1 3 4 5 9 15 19 18 15 11 7 4 3 5 7 8 13 16 16 14 14 17 19 22 23 23 22 20 19 17 16 15 14 12 12 12
0 0 0 0 0 0 0 0 0 1 3 4 7 10 14 16 15 10 6 4 5 6 7 7 9 13 15 15 16 17 19 20 21 21 22 22 21 17 15 14 13 11 10 9
0 0 0 0 0 1 1 1 1 1 3 5 7 8 10 12 12 8 6 6 7 9 9 7 8 11 16 19 20 20 21 22 21 20 20 21 20 18 15 14 13 10 8 8
0 0 0 0 1 2 3 3 2 2 4 5 6 8 9 8 8 7 7 7 7 8 8 8 9 12 16 20 22 23 24 24 22 20 18 19 19 17 16 15 12 9 8 8
0 0 0 1 1 2 3 3 3 4 4 4 5 6 7 6 6 7 7 8 8 8 9 9 11 14 17 19 21 22 23 23 22 20 19 18 17 16 16 14 11 9 9 9
0 0 1 2 2 1 1 2 3 3 3 2 2 2 3 4 5 6 7 8 10 11 11 10 12 17 20 19 18 18 19 19 19 19 19 17 15 15 15 12 10 8 9 9
0 0 1 2 2 1 0 1 1 1 1 1 1 1 2 4 5 5 5 6 8 11 11 11 13 18 21 19 16 17 17 17 18 19 17 15 14 13 13 11 9 9 9 9
1 1 1 2 1 1 0 0 0 0 0 1 2 2 3 5 6 6 5 4 6 7 9 10 12 16 18 17 17 18 19 19 19 18 16 14 13 13 12 11 10 10 10 9
3 2 2 2 2 1 0 0 0 0 0 1 1 2 4 6 7 5 3 3 5 6 7 8 9 10 11 12 16 18 18 18 18 17 15 14 13 13 12 13 13 13 11 10
3 2 1 1 1 1 0 0 0 1 1 2 3 3 4 6 7 5 3 2 4 6 6 5 5 5 6 9 12 13 13 14 14 14 13 13 12 11 12 12 12 12 10 9
2 1 0 1 1 0 0 0 0 1 3 4 4 4 5 6 7 6 4 3 4 6 6 4 4 4 5 8 10 10 9 10 11 11 11 11 10 8 8 7 6 6 5 5
1 0 0 1 1 1 1 1 0 1 2 4 5 5 6 7 8 8 6 4 5 6 6 5 5 6 6 8 9 9 9 9 10 9 9 9 8 7 6 4 2 1 1 1
1 1 1 2 2 2 2 2 1 1 2 4 4 5 6 7 8 7 5 4 5 7 7 6 6 6 6 7 9 10 10 10 9 8 7 6 6 6 6 5 3 1 0 0
2 2 3 4 4 4 3 3 3 3 3 3 3 4 4 4 5 6 5 4 6 7 7 6 6 6 6 7 9 10 10 9 8 6 5 4 4 5 6 6 5 3 1 0
3 3 4 4 5 4 4 3 3 4 3 3 3 3 3 3 4 5 5 5 6 7 7 7 7 7 7 8 9 10 9 7 6 4 3 3 3 4 5 6 5 3 2 1
3 3 3 4 4 4 4 4 4 4 4 3 3 3 4 5 6 6 6 6 6 7 8 8 8 7 7 7 9 10 8 5 4 3 3 3 3 3 4 4 3 2 1 1
3 3 3 3 3 3 4 4 5 4 4 4 4 4 5 6 6 6 6 6 6 7 7 8 8 6 6 6 7 8 6 4 3 3 3 3 3 3 3 2 1 0 0 0
3 3 3 3 3 3 4 4 5 5 4 5 5 6 6 6 6 6 6 6 6 6 6 7 6 5 4 5 6 6 5 4 3 3 3 3 3 3 2 1 0 0 0 0
3 3 4 4 3 3 4 5 6 6 5 5 6 6 6 6 6 6 6 6 6 6 6 6 5 4 3 3 4 4 4 4 3 3 3 3 2 1 1 0 0 0 0 0
2 3 4 4 3 3 4 5 6 5 5 5 5 5 6 6 6 6 6 6 5 4 4 3 3 2 1 1 2 3 4 3 3 3 2 2 1 0 0 0 0 0 0 0
1 1 3 3 2 2 3 5 5 5 4 4 4 4 4 5 5 5 5 4 3 2 2 1 1 1 0 1 2 3 3 2 2 1 1 1 0 0 0 0 0 0 0 0
0 0 1 1 0 1 1 3 4 4 4 4 3 3 2 2 3 4 4 2 1 0 0 0 0 0 1 2 2 2 1 1 1 0 0 0 0 0 0 0 0 0 0 0
0 0 0 0 0 0 0 1 2 3 4 4 3 2 1 1 2 2 2 1 0 0 0 0 0 0 1 1 1 1 0 0 0 0 0 0 0 0 0 0 0 0 0 0
0 0 0 0 0 0 0 0 0 1 3 3 2 1 1 1 1 1 1 0 0 0 0 0 0 0 0 0 0 0 0 0 0 0 0 0 0 0 0 0 0 0 0 0
0 0 0 0 0 0 0 0 0 0 1 1 1 1 0 0 0 0 0 0 0 0 0 0 0 0 0 0 0 0 0 0 0 0 0 0 0 0 0 0 0 0 0 0
0 0 0 0 0 0 0 0 0 0 0 0 0 0 0 0 0 0 0 0 0 0 0 0 0 0 0 0 0 0 0 0 0 0 0 0 0 0 0 0 0 0 0 0

GEFSNGP_con_prob3kmehi_312.txt.gz
EHI
0 0 0 0 0 0 0 0 0 0 0 0 2 5 6 6 4 3 3 2 1 1 1 1 0 0 1 3 3 4 4 5 6 6 7 7 7 7 7 8 8 8 8 9
0 0 0 0 0 0 0 0 0 0 0 0 3 6 7 6 5 5 4 3 2 2 2 2 1 1 3 3 3 4 5 5 6 7 9 10 9 9 8 7 7 6 6 7
0 0 0 0 0 0 0 0 0 0 0 2 5 7 6 5 6 6 5 4 3 3 3 2 2 3 4 4 4 5 5 5 6 7 10 11 11 10 9 7 5 5 4 5
0 0 0 0 0 0 0 0 0 0 1 3 6 6 5 4 4 5 4 3 3 3 3 2 2 4 5 3 3 4 5 6 6 7 9 11 11 10 9 7 5 4 3 4
0 0 0 0 1 0 0 0 0 1 2 4 5 5 4 3 3 3 3 2 2 2 2 1 1 3 4 2 3 4 5 6 6 7 9 12 13 13 12 10 7 5 4 4
0 0 0 0 1 1 0 0 1 2 3 4 4 5 4 3 3 2 1 1 1 1 1 0 0 1 2 2 3 4 4 5 6 8 11 15 17 17 16 14 11 8 7 6
0 0 0 1 2 2 1 1 2 3 2 2 3 4 4 3 2 1 0 0 0 0 0 1 1 1 2 3 3 3 3 4 6 8 12 16 19 19 18 16 13 11 9 9
0 0 0 1 2 2 1 1 2 2 1 1 3 3 2 1 0 0 0 0 0 1 1 2 2 2 3 3 3 3 3 3 5 8 12 16 18 18 16 14 11 10 9 10
0 0 0 0 1 1 1 1 1 1 1 2 3 3 2 1 1 0 0 1 1 2 2 3 3 2 2 3 3 4 5 5 6 8 12 14 15 15 13 12 9 8 8 8
1 0 0 0 0 0 0 0 0 0 1 2 2 3 3 2 2 1 1 2 2 3 3 3 2 1 1 2 3 4 6 7 8 9 11 12 12 12 12 11 10 9 8 7
1 0 0 0 0 0 0 0 0 0 0 1 2 3 3 3 2 1 1 2 2 2 2 1 1 0 1 2 3 4 6 7 7 7 8 9 9 10 10 9 9 8 7 7
1 0 0 0 0 0 0 0 0 0 1 1 3 3 3 3 3 1 1 1 1 1 1 0 0 1 2 3 4 5 7 7 6 5 5 7 7 7 6 5 4 4 4 4
0 0 0 0 0 0 0 0 0 1 2 3 3 3 3 4 4 3 2 2 2 1 1 0 0 2 4 5 6 6 8 8 7 5 5 6 7 6 5 4 2 1 1 1
0 0 0 0 0 0 1 1 1 2 3 3 3 3 4 4 4 3 3 2 2 2 1 1 1 2 4 6 6 7 8 7 7 6 6 7 8 8 7 6 4 2 1 0
0 0 0 0 0 1 2 2 3 3 3 3 3 3 3 4 4 3 2 1 1 1 1 1 2 3 4 4 5 6 7 7 6 5 5 7 8 7 7 6 5 3 2 1
0 0 0 0 0 2 3 3 3 3 3 3 3 3 3 3 3 3 2 1 0 0 0 2 3 3 3 3 4 4 5 5 5 3 3 4 5 5 5 4 4 3 3 2
0 0 0 0 0 1 3 4 4 3 3 3 3 3 3 3 3 3 3 1 1 1 1 2 3 3 3 3 3 3 4 3 2 2 1 2 3 3 3 3 3 3 3 3
0 0 0 0 0 1 3 4 5 4 3 3 3 3 3 3 3 3 4 3 3 2 2 3 3 3 3 3 3 3 3 2 1 0 0 1 2 3 3 3 3 3 3 3
1 1 0 0 0 1 3 4 4 4 4 3 3 3 3 3 3 3 4 4 3 3 3 3 3 3 3 3 3 2 1 1 0 0 0 0 1 3 3 3 3 3 3 3
0 0 0 0 0 1 3 4 4 4 4 3 3 3 3 3 3 3 3 2 1 1 2 2 2 2 2 2 2 1 0 0 0 0 0 0 1 2 3 3 3 2 2 1
0 0 0 0 0 1 3 4 5 5 4 3 3 3 3 3 3 3 2 1 0 0 1 1 1 1 1 1 1 0 0 0 0 0 0 0 0 1 2 2 1 1 1 0
0 0 0 0 0 1 3 4 4 5 5 4 3 3 3 3 3 3 3 1 0 0 0 0 0 0 0 0 0 0 0 0 0 0 0 0 0 0 1 1 0 0 0 0
0 0 0 0 0 1 2 2 3 4 4 3 3 3 3 3 3 2 2 1 0 0 0 0 0 0 0 0 0 0 0 0 0 0 0 0 0 0 0 0 0 0 0 0
0 0 0 0 0 0 1 1 1 2 2 2 2 2 2 2 1 1 1 0 0 0 0 0 0 0 0 0 0 0 0 0 0 0 0 0 0 0 0 0 0 0 0 0
0 0 0 0 0 0 0 0 0 1 1 1 1 1 1 1 0 0 0 0 0 0 0 0 0 0 0 0 0 0 0 0 0 0 0 0 0 0 0 0 0 0 0 0
0 0 0 0 0 0 0 0 0 0 0 0 0 0 0 0 0 0 0 0 0 0 0 0 0 0 0 0 0 0 0 0 0 0 0 0 0 0 0 0 0 0 0 0
0 0 0 0 0 0 0 0 0 0 0 0 0 0 0 0 0 0 0 0 0 0 0 0 0 0 0 0 0 0 0 0 0 0 0 0 0 0 0 0 0 0 0 0